Weather History for Blytheville Muni Airport, AR

Change the Weather History Date:

Wednesday, February 26, 2014

  Actual Average Record
Temperature  
Mean Temperature 28 °F -  
Max Temperature 34 °F 53 °F 77 °F (1981)
Min Temperature 21 °F 35 °F 15 °F (1934)
Degree Days  
Heating Degree Days 38    
Moisture  
Dew Point 12 °F    
Average Humidity 57    
Maximum Humidity 75    
Minimum Humidity 37    
Precipitation  
Precipitation 0.00 in - - ()
Sea Level Pressure  
Sea Level Pressure 30.22 in    
Wind  
Wind Speed 19 mph (North)    
Max Wind Speed 28 mph    
Max Gust Speed 33 mph    
Visibility 10 miles    
Events      
Averages and records for this station are not official NWS values.
T = Trace of Precipitation, MM = Missing Value Source: NWS Daily Summary

Daily Weather History Graph

Daily Weather History Graph

Search for Another Location

Airport:

Trip Planner

Search our weather history database for the weather conditions in past years. The results will help you decide how hot, cold, wet, or windy it might be!

Date:

Astronomy

Feb. 26, 2014 Rise Set
Actual Time 6:33 AM CST 5:51 PM CST
Civil Twilight 6:07 AM CST 6:17 PM CST
Nautical Twilight 5:37 AM CST 6:47 PM CST
Astronomical Twilight 5:08 AM CST 7:16 PM CST
Moon 4:15 AM CST (2/26) 3:09 PM CST (2/26)
Length of Visible Light 12h 09m
Length of Day
11h 18m
Waning Crescent, 10% of the Moon is Illuminated
Feb 26
Waning Crescent
Mar 1
New
Mar 8
First Quarter
Mar 16
Full
Mar 23
Last Quarter

Hourly Weather History & Observations

Time (CST) Temp. Windchill Dew Point Humidity Pressure Visibility Wind Dir Wind Speed Gust Speed Precip Events Conditions
12:53 AM 30.0 °F 17.5 °F 19.0 °F 64% 30.22 in 10.0 mi NNE 19.6 mph - N/A   Overcast
1:53 AM 28.0 °F 13.6 °F 19.9 °F 72% 30.25 in 10.0 mi North 24.2 mph - N/A   Overcast
2:20 AM 28.4 °F 14.1 °F 19.4 °F 69% 30.27 in 10.0 mi North 24.2 mph 31.1 mph N/A   Overcast
2:35 AM 28.4 °F 14.4 °F 17.6 °F 64% 30.27 in 10.0 mi North 23.0 mph 31.1 mph N/A   Overcast
2:53 AM 27.0 °F 11.3 °F 17.1 °F 66% 30.28 in 10.0 mi North 27.6 mph 33.4 mph N/A   Overcast
3:53 AM 27.0 °F 11.6 °F 18.0 °F 69% 30.27 in 10.0 mi North 26.5 mph 32.2 mph N/A   Overcast
4:26 AM 24.8 °F 10.0 °F 15.8 °F 69% 30.26 in 10.0 mi NNE 21.9 mph 31.1 mph N/A   Scattered Clouds
4:53 AM 24.1 °F 9.4 °F 15.1 °F 69% 30.27 in 10.0 mi NNE 20.7 mph - N/A   Clear
5:53 AM 23.0 °F 7.2 °F 12.9 °F 65% 30.28 in 10.0 mi NNE 23.0 mph 27.6 mph N/A   Clear
6:33 AM 21.2 °F 5.6 °F 12.2 °F 68% 30.28 in 10.0 mi NNE 20.7 mph 25.3 mph N/A   Mostly Cloudy
6:53 AM 21.9 °F 5.5 °F 10.0 °F 60% 30.29 in 10.0 mi North 24.2 mph 31.1 mph N/A   Mostly Cloudy
7:07 AM 21.2 °F 5.6 °F 8.6 °F 58% 30.29 in 10.0 mi NNE 20.7 mph 32.2 mph N/A   Scattered Clouds
7:53 AM 23.0 °F 6.6 °F 8.1 °F 53% 30.30 in 10.0 mi North 25.3 mph - N/A   Clear
8:53 AM 25.0 °F 10.6 °F 7.0 °F 46% 30.30 in 10.0 mi NNE 20.7 mph 25.3 mph N/A   Clear
9:53 AM 27.0 °F 12.8 °F 8.1 °F 45% 30.31 in 10.0 mi North 21.9 mph 26.5 mph N/A   Clear
10:53 AM 28.0 °F 14.6 °F 8.1 °F 43% 30.30 in 10.0 mi North 20.7 mph - N/A   Clear
11:53 AM 28.9 °F 18.6 °F 9.0 °F 43% 30.26 in 10.0 mi NNE 12.7 mph 20.7 mph N/A   Clear
12:53 PM 30.9 °F 18.7 °F 9.0 °F 40% 30.23 in 10.0 mi North 19.6 mph 24.2 mph N/A   Clear
1:53 PM 34.0 °F 25.5 °F 10.9 °F 38% 30.19 in 10.0 mi North 11.5 mph 23.0 mph N/A   Clear
2:53 PM 32.0 °F 20.8 °F 10.0 °F 40% 30.17 in 10.0 mi North 17.3 mph 20.7 mph N/A   Clear
3:53 PM 33.1 °F 25.5 °F 10.0 °F 38% 30.14 in 10.0 mi North 9.2 mph 16.1 mph N/A   Clear
4:53 PM 32.0 °F 24.2 °F 8.1 °F 37% 30.13 in 10.0 mi North 9.2 mph - N/A   Clear
5:53 PM 27.0 °F - 9.0 °F 47% 30.11 in 10.0 mi Calm Calm - N/A   Clear
6:53 PM 27.0 °F - 10.9 °F 51% 30.11 in 10.0 mi Calm Calm - N/A   Clear
7:53 PM 25.0 °F 18.1 °F 10.9 °F 55% 30.10 in 10.0 mi South 5.8 mph - N/A   Clear
8:53 PM 24.1 °F 18.2 °F 12.9 °F 62% 30.11 in 10.0 mi South 4.6 mph - N/A   Clear
9:53 PM 23.0 °F 15.8 °F 12.9 °F 65% 30.11 in 10.0 mi SSW 5.8 mph - N/A   Clear
10:53 PM 21.9 °F 13.4 °F 14.0 °F 72% 30.09 in 10.0 mi SSW 6.9 mph - N/A   Clear
11:53 PM 21.9 °F 13.4 °F 15.1 °F 75% 30.08 in 10.0 mi SW 6.9 mph - N/A   Clear